sat.trackr.live / text

‹ back to catalog

FALCON EYE 2

NORAD 47226 · 2020-090A

PAYLOAD ACTIVE UNKNOWN

§ Identity

Operator
Country
UAE
Launch date
2020-12-02
Launch site
FRGUI
Launch vehicle
Mass (kg)
RCS (m²)

External: N2YO · Heavens-Above · Gunter

§ Orbital elements

Epoch: 2026-09-20T04:23:03.361920Z

Period
96.97 min
Inclination
97.8503°
Eccentricity
0.0001325
Mean motion
14.84921918 rev/d
Perigee alt
612.9 km
Apogee alt
614.8 km
Semi-major
6,992.0 km
B*
1.2079e-4
RAAN
336.5838°
Arg perigee
80.0448°
Mean anomaly
280.0916°
Rev number
31,433

§ Raw data

FALCON EYE 21 47226U 20090A   26263.18267780  .00000975  00000+0  12079-3 0  99922 47226  97.8503 336.5838 0001325  80.0448 280.0916 14.84921918314333

JSON: /api/v1/satellites/47226 · /tle

For live sub-satellite position, see the globe view (requires WebGL).

§ Visibility from observer

Set your observer location to see the next 7 days of passes ≥ 10°. The values pass through the URL so the page stays shareable.

No JS? Fill the form by hand. The geolocation button needs JavaScript.